• In Hungary
  • List of Countries
  • For 7 days
  • Water Temperature
  • Satellite Maps
  • Weather Map
  • News
  • Weather Widgets
  • user-avatar
    Login

    Hourly Weather Andreevskiy

    Today, 22 October, Monday

    Time Temperature Precipitation Wind Pressure Humidity
    00:00 +3°C° 0 mm 1 mps 751 mmHg 86%
    01:00 +3°C° 0 mm 1 mps 751 mmHg 87%
    02:00 +3°C° 0 mm 1 mps 751 mmHg 87%
    03:00 +3°C° 0 mm 1 mps 752 mmHg 87%
    04:00 +2°C° 0 mm 1 mps 752 mmHg 87%
    05:00 +2°C° 0 mm 1 mps 752 mmHg 87%
    06:00 +1°C° 0 mm 0 mps 752 mmHg 87%
    07:00 +1°C° 0 mm 0 mps 752 mmHg 87%
    08:00 +2°C° 0 mm 0 mps 753 mmHg 79%
    09:00 +4°C° 0 mm 1 mps 753 mmHg 71%
    10:00 +5°C° 0 mm 1 mps 753 mmHg 63%
    11:00 +6°C° 0 mm 1 mps 753 mmHg 60%
    12:00 +7°C° 0 mm 1 mps 753 mmHg 56%
    13:00 +8°C° 0 mm 1 mps 752 mmHg 53%
    14:00 +7°C° 0 mm 1 mps 752 mmHg 55%
    15:00 +7°C° 0 mm 1 mps 752 mmHg 56%
    16:00 +7°C° 0 mm 1 mps 752 mmHg 58%
    17:00 +6°C° 0 mm 1 mps 752 mmHg 62%
    18:00 +4°C° 0 mm 0 mps 752 mmHg 67%
    19:00 +3°C° 0 mm 0 mps 752 mmHg 71%
    20:00 +4°C° 0 mm 1 mps 752 mmHg 72%
    21:00 +3°C° 0 mm 1 mps 752 mmHg 73%
    22:00 +3°C° 0 mm 1 mps 752 mmHg 73%
    23:00 +2°C° 0 mm 2 mps 751 mmHg 74%

    Tomorrow, 23 October, Tuesday

    Time Temperature Precipitation Wind Pressure Humidity
    00:00 +2°C° 0 mm 2 mps 751 mmHg 75%
    01:00 +2°C° 0 mm 2 mps 751 mmHg 75%
    02:00 +2°C° 0 mm 2 mps 751 mmHg 76%
    03:00 +1°C° 0 mm 2 mps 751 mmHg 76%
    04:00 +1°C° 0 mm 2 mps 751 mmHg 77%
    05:00 +1°C° 0 mm 2 mps 750 mmHg 77%
    06:00 +1°C° 0 mm 2 mps 750 mmHg 77%
    07:00 +1°C° 0 mm 2 mps 750 mmHg 77%
    08:00 +1°C° 0 mm 3 mps 750 mmHg 71%
    09:00 +3°C° 0 mm 3 mps 750 mmHg 65%
    10:00 +4°C° 0 mm 3 mps 749 mmHg 58%
    11:00 +7°C° 0 mm 3 mps 749 mmHg 55%
    12:00 +7°C° 0 mm 4 mps 748 mmHg 52%
    13:00 +8°C° 0 mm 4 mps 748 mmHg 49%
    14:00 +8°C° 0 mm 4 mps 747 mmHg 51%
    15:00 +8°C° 0 mm 4 mps 747 mmHg 53%
    16:00 +7°C° 0 mm 4 mps 746 mmHg 55%
    17:00 +7°C° 0 mm 4 mps 746 mmHg 59%
    18:00 +6°C° 0 mm 4 mps 746 mmHg 63%
    19:00 +5°C° 0 mm 3 mps 745 mmHg 67%
    20:00 +5°C° 0 mm 4 mps 745 mmHg 69%
    21:00 +6°C° 0 mm 4 mps 745 mmHg 70%
    22:00 +6°C° 0 mm 4 mps 744 mmHg 71%
    23:00 +6°C° 0 mm 4 mps 744 mmHg 72%

    Day after tomorrow, 24 October, Wednesday

    Time Temperature Precipitation Wind Pressure Humidity
    00:00 +7°C° 0 mm 4 mps 744 mmHg 73%
    01:00 +7°C° 0 mm 4 mps 743 mmHg 73%
    02:00 +7°C° 0 mm 5 mps 743 mmHg 76%
    03:00 +7°C° 0 mm 5 mps 743 mmHg 79%
    04:00 +7°C° 0 mm 5 mps 743 mmHg 81%
    05:00 +7°C° 0.1 mm 5 mps 743 mmHg 82%
    06:00 +7°C° 0.1 mm 5 mps 742 mmHg 83%
    07:00 +7°C° 0.1 mm 6 mps 742 mmHg 84%
    08:00 +7°C° 0.1 mm 6 mps 742 mmHg 82%
    09:00 +8°C° 0.1 mm 6 mps 742 mmHg 80%
    10:00 +8°C° 0.1 mm 7 mps 742 mmHg 78%
    11:00 +9°C° 0 mm 7 mps 742 mmHg 74%
    12:00 +9°C° 0 mm 7 mps 741 mmHg 70%
    13:00 +10°C° 0 mm 7 mps 741 mmHg 66%
    14:00 +9°C° 0 mm 7 mps 741 mmHg 65%
    15:00 +9°C° 0 mm 6 mps 741 mmHg 64%
    16:00 +9°C° 0 mm 6 mps 741 mmHg 62%
    17:00 +9°C° 0 mm 5 mps 741 mmHg 62%
    18:00 +8°C° 0 mm 5 mps 741 mmHg 62%
    19:00 +8°C° 0 mm 4 mps 741 mmHg 62%
    20:00 +8°C° 0 mm 4 mps 741 mmHg 62%
    21:00 +8°C° 0 mm 4 mps 741 mmHg 63%
    22:00 +8°C° 0 mm 4 mps 741 mmHg 63%
    23:00 +8°C° 0 mm 4 mps 741 mmHg 66%

    25 October, Thursday

    Time Temperature Precipitation Wind Pressure Humidity
    00:00 +8°C° 0 mm 4 mps 741 mmHg 68%
    01:00 +7°C° 0 mm 4 mps 741 mmHg 71%
    02:00 +7°C° 0 mm 4 mps 741 mmHg 73%
    03:00 +8°C° 0 mm 3 mps 741 mmHg 75%
    04:00 +8°C° 0 mm 3 mps 741 mmHg 77%
    05:00 +7°C° 0 mm 4 mps 741 mmHg 77%
    06:00 +7°C° 0 mm 4 mps 741 mmHg 78%
    07:00 +7°C° 0 mm 4 mps 741 mmHg 78%
    08:00 +8°C° 0 mm 5 mps 740 mmHg 70%
    09:00 +10°C° 0 mm 6 mps 740 mmHg 61%
    10:00 +11°C° 0 mm 7 mps 740 mmHg 53%
    11:00 +12°C° 0 mm 7 mps 740 mmHg 49%
    12:00 +13°C° 0 mm 8 mps 739 mmHg 45%
    13:00 +15°C° 0 mm 8 mps 739 mmHg 41%
    14:00 +15°C° 0 mm 8 mps 739 mmHg 41%
    15:00 +15°C° 0 mm 8 mps 738 mmHg 42%
    16:00 +13°C° 0 mm 8 mps 738 mmHg 42%
    17:00 +14°C° 0 mm 7 mps 738 mmHg 44%
    18:00 +12°C° 0 mm 7 mps 738 mmHg 45%
    19:00 +11°C° 0 mm 7 mps 738 mmHg 47%
    20:00 +12°C° 0 mm 7 mps 737 mmHg 46%
    21:00 +12°C° 0 mm 7 mps 737 mmHg 45%
    22:00 +12°C° 0 mm 7 mps 737 mmHg 45%
    23:00 +12°C° 0 mm 7 mps 737 mmHg 45%

    26 October, Friday

    Time Temperature Precipitation Wind Pressure Humidity
    00:00 +12°C° 0 mm 7 mps 736 mmHg 46%
    01:00 +12°C° 0 mm 7 mps 736 mmHg 46%
    02:00 +12°C° 0 mm 7 mps 736 mmHg 46%
    03:00 +12°C° 0 mm 7 mps 735 mmHg 47%
    04:00 +13°C° 0 mm 6 mps 735 mmHg 47%
    05:00 +13°C° 0 mm 6 mps 734 mmHg 49%
    06:00 +13°C° 0 mm 6 mps 734 mmHg 50%
    07:00 +11°C° 0 mm 6 mps 733 mmHg 51%
    08:00 +13°C° 0 mm 6 mps 733 mmHg 50%
    09:00 +13°C° 0 mm 6 mps 733 mmHg 49%
    10:00 +14°C° 0 mm 6 mps 733 mmHg 48%
    11:00 +14°C° 0.3 mm 6 mps 733 mmHg 52%
    12:00 +13°C° 0.3 mm 5 mps 733 mmHg 57%
    13:00 +13°C° 0.3 mm 5 mps 733 mmHg 61%
    14:00 +13°C° 0.3 mm 4 mps 733 mmHg 67%
    15:00 +12°C° 0.3 mm 3 mps 734 mmHg 73%
    16:00 +11°C° 0.3 mm 3 mps 734 mmHg 79%
    17:00 +11°C° 0 mm 3 mps 735 mmHg 75%
    18:00 +10°C° 0 mm 3 mps 735 mmHg 71%
    19:00 +9°C° 0 mm 3 mps 736 mmHg 67%
    20:00 +9°C° 0 mm 3 mps 736 mmHg 67%
    21:00 +8°C° 0 mm 3 mps 737 mmHg 66%
    22:00 +8°C° 0 mm 3 mps 737 mmHg 65%
    23:00 +7°C° 0 mm 3 mps 737 mmHg 68%

    27 October, Saturday

    Time Temperature Precipitation Wind Pressure Humidity
    00:00 +5°C° 0 mm 3 mps 737 mmHg 70%
    01:00 +5°C° 0 mm 3 mps 738 mmHg 73%
    02:00 +5°C° 0 mm 3 mps 738 mmHg 75%
    03:00 +4°C° 0 mm 3 mps 738 mmHg 77%
    04:00 +5°C° 0 mm 2 mps 738 mmHg 79%
    05:00 +3°C° 0 mm 3 mps 738 mmHg 80%
    06:00 +3°C° 0 mm 3 mps 739 mmHg 81%
    07:00 +3°C° 0 mm 3 mps 739 mmHg 82%
    08:00 +3°C° 0.1 mm 3 mps 739 mmHg 82%
    09:00 +4°C° 0.1 mm 4 mps 740 mmHg 81%
    10:00 +4°C° 0.1 mm 4 mps 740 mmHg 81%
    11:00 +4°C° 0.1 mm 4 mps 740 mmHg 76%
    12:00 +3°C° 0.1 mm 5 mps 740 mmHg 72%
    13:00 +5°C° 0.1 mm 5 mps 741 mmHg 68%
    14:00 +3°C° 0 mm 5 mps 741 mmHg 65%
    15:00 +3°C° 0 mm 5 mps 742 mmHg 62%
    16:00 +3°C° 0 mm 5 mps 742 mmHg 60%
    17:00 +2°C° 0 mm 5 mps 743 mmHg 61%
    18:00 +3°C° 0 mm 4 mps 744 mmHg 63%
    19:00 +3°C° 0 mm 3 mps 745 mmHg 64%
    20:00 +2°C° 0 mm 3 mps 745 mmHg 68%
    21:00 +1°C° 0 mm 3 mps 745 mmHg 71%
    22:00 +1°C° 0 mm 3 mps 746 mmHg 75%
    23:00 +1°C° 0 mm 3 mps 746 mmHg 76%
    Show more